Regional Weather Roundup
Issued by NWS Green Bay, WI

Home | Current Version | Previous Version | Text Only | Print | Product List | Glossary On
Versions: 1 2 3 4 5 6 7 8 9 10 11 12 13 14 15 16 17 18 19 20 21 22 23 24 25 26 27 28 29 30 31 32 33 34 35 36 37 38 39 40 41 42 43 44 45 46 47 48 49 50
000
ASUS43 KGRB 040700
RWRGRB

NORTH-CENTRAL AND NORTHEAST WISCONSIN REGIONAL WEATHER ROUNDUP
NATIONAL WEATHER SERVICE GREEN BAY WI
200 AM CDT WED MAY 04 2016

WIZ005-009-010>012-018-019-040800-
NORTH CENTRAL WISCONSIN

CITY           SKY/WX    TMP DP  RH WIND       PRES   REMARKS
IRONWOOD         N/A     45  36  70 N8        29.81S
MANITOWISH WTR NOT AVBL
ARBOR VITAE    NOT AVBL
EAGLE RIVER    NOT AVBL
LAND O LAKES   NOT AVBL
RHINELANDER    CLOUDY    41  34  76 N8        29.79R
PHILLIPS       PTCLDY    40  36  87 N9        29.82R
ANTIGO         NOT AVBL
TOMAHAWK       NOT AVBL
MERRILL        NOT AVBL
$$

WIZ013-073-040800-
NORTHEAST WISCONSIN

CITY           SKY/WX    TMP DP  RH WIND       PRES   REMARKS
IRON MOUNTAIN  MOCLDY    41  34  76 N13       29.73S
MARINETTE        N/A     43  37  81 MISG        N/A
$$

WIZ017-030-035>037-045-040800-
CENTRAL WISCONSIN

CITY           SKY/WX    TMP DP  RH WIND       PRES   REMARKS
MEDFORD        NOT AVBL
WAUSAU         PTCLDY    44  40  85 N13G20    29.75R
MOSINEE        NOT AVBL
MARSHFIELD     PTCLDY    46  41  82 N12       29.75R
WISC RAPIDS    PTCLDY    43  40  89 N7        29.75R
STEVENS POINT  NOT AVBL
WAUPACA        CLEAR     46  44  93 N10       29.73R
SHAWANO        PTCLDY    46  42  85 N6        29.73R
CLINTONVILLE   NOT AVBL
WAUTOMA        CLEAR     45  42  89 N8        29.72R
$$

WIZ038-039-048-051-040800-
FOX VALLEY

CITY           SKY/WX    TMP DP  RH WIND       PRES   REMARKS
NWS GREEN BAY  LGT RAIN  47  43  86 N13       29.71R
APPLETON       NOT AVBL
OSHKOSH        CLEAR     46  42  86 N12       29.69R
FOND DU LAC    PTCLDY    46  45  96 N7        29.68R
$$

WIZ022-050-052-040800-
EAST CENTRAL WISCONSIN

CITY           SKY/WX    TMP DP  RH WIND       PRES   REMARKS
EPHRAIM        NOT AVBL
STURGEON BAY   CLEAR     43  36  75 N14       29.72S
MANITOWOC      NOT AVBL
SHEBOYGAN      CLOUDY    48  46  93 N8        29.66S
$$

LMZ563-521-522-541>543-040800-
LAKESHORE

STATION/POSITION TIME  TEMP    WIND        PRES    VSBY  WAVE
                       AIR SEA DIR/SP/G                  HT/PER
                 (UTC) (F)     (DEG/KT/KT) (MB)    (MI)  (FT/S)
SHEBOYGAN LKSHOR 0600   45     360/ 11/ 13 1004.8R
KEWAUNEE LKSHORE 0600   48      10/  9/ 13 1004.6R
ALGOMA MARINA    0600           10/ 11/ 14   N/A
NORTHPORT PIER   0600   42     330/ 14/ 19 1005.8S
N MID LAKE BUOY  0550   41 39  300/ 17/ 19 1004.4F         2/ 5
CHAMBERS ISLAND  0600   43     340/  9/ 12 1006.4R
MENOMINEE LKSHOR 0600   46     350/ 13/ 16 1004.9F
$$



USA.gov is the U.S. government's official web portal to all federal, state and local government web resources and services.